Probability
0 0 0 0 0 0 0 0 0 0 0 0 0 0 0 0 0 0 0 0 0 0 0 0 0 0 0 0 0 0 0 0 0 0 0 0 0 0 0 0 0 0 0
0 0 0 0 0 0 0 0 0 0 0 0 0 0 0 0 0 0 0 0 0 0 0 0 0 0 0 0 0 0 0 0 0 0 0 0 0 0 0 0 0 0 0
0 0 0 0 0 0 0 0 0 0 0 0 0 0 0 0 0 0 0 0 0 0 0 0 0 0 0 0 0 0 0 0 0 0 0 0 0 0 0 0 0 0 0
0 0 0 0 0 0 0 0 0 0 0 0 0 0 0 0 0 0 0 0 0 0 0 0 0 0 0 0 0 0 0 0 0 0 0 0 0 0 0 0 0 0 0
0 0 0 0 0 0 0 0 0 0 0 0 0 0 0 0 0 0 0 0 0 0 0 0 0 0 0 0 0 0 0 0 0 0 0 0 0 0 0 0 0 0 0
0 0 0 0 0 0 0 0 0 0 0 0 0 0 0 0 0 0 0 0 0 0 0 0 0 0 0 0 0 0 0 0 0 0 0 0 0 0 0 0 0 0 0
0 0 0 0 0 0 0 0 0 0 0 0 0 0 0 0 0 0 0 0 0 0 0 0 0 0 0 0 0 0 0 0 0 0 0 0 0 0 0 0 0 0 0
0 0 0 0 0 0 0 0 0 0 0 0 0 0 0 0 0 0 0 0 0 0 0 0 0 0 0 0 0 0 0 0 0 0 0 0 0 0 0 0 0 0 0
0 0 0 0 0 0 0 0 0 0 0 0 0 0 0 0 0 0 0 0 0 0 0 0 0 0 0 0 0 0 0 0 0 0 0 0 0 0 0 0 0 0 0
0 0 0 0 0 0 0 0 0 0 0 0 0 0 0 0 0 0 0 0 0 0 0 0 0 0 0 0 0 0 0 0 0 0 0 0 0 0 0 0 0 0 0
0 0 0 0 0 0 0 0 0 0 0 0 0 0 0 0 0 0 0 0 0 0 0 0 0 0 0 0 0 0 0 0 0 0 0 0 0 0 0 0 0 0 0
0 0 0 0 0 0 0 0 0 0 0 0 0 0 0 0 0 0 0 0 0 0 0 0 0 0 0 0 0 0 0 0 0 0 0 0 0 0 0 0 0 0 0
0 0 0 0 0 0 0 0 0 0 0 0 0 0 0 0 0 0 0 0 0 0 0 0 0 0 0 0 0 0 0 0 0 0 0 0 0 0 0 0 0 0 0
0 0 0 0 0 0 0 0 0 0 0 0 0 0 0 0 0 0 0 0 0 0 0 0 0 0 0 0 0 0 0 0 0 0 0 0 0 0 0 0 0 0 0
0 0 0 0 0 0 0 0 0 0 0 0 0 0 0 0 0 0 0 0 0 0 0 0 0 0 0 0 0 0 0 0 0 0 0 0 0 0 0 0 0 0 0
0 0 0 0 0 0 0 0 0 0 0 0 0 0 0 0 0 0 0 0 0 0 0 0 0 0 0 0 0 0 0 0 0 0 0 0 0 0 0 0 0 0 0
0 0 0 0 0 0 0 0 0 0 0 0 0 0 0 0 0 0 0 0 0 0 0 0 0 0 0 0 0 0 0 0 0 0 0 0 0 0 0 0 0 0 0
0 0 0 0 0 0 0 0 0 0 0 0 0 0 0 0 0 0 0 0 0 0 0 0 0 0 0 0 0 0 0 0 0 0 0 0 0 0 0 0 0 0 0
0 0 0 0 0 0 0 0 0 0 0 0 0 0 0 0 0 0 0 0 0 0 0 0 0 0 0 0 0 0 0 0 0 0 0 0 0 0 0 0 0 0 0
0 0 0 0 0 0 0 0 0 0 0 0 0 0 0 0 0 0 0 0 0 0 0 0 0 0 0 0 0 0 0 0 0 0 0 0 0 0 0 0 0 0 0
0 0 0 0 0 0 0 0 0 0 0 0 0 0 0 0 0 0 0 0 0 0 0 0 0 0 0 0 0 0 0 0 0 0 0 0 0 0 0 0 0 0 0
0 0 0 0 0 0 0 0 0 0 0 0 0 0 0 0 0 0 0 0 0 0 0 0 0 0 0 0 0 0 0 0 0 0 0 0 0 0 0 0 0 0 0
0 0 0 0 0 0 0 0 0 0 0 0 0 0 0 0 0 0 0 0 0 0 0 0 0 0 0 0 0 0 0 0 0 0 0 0 0 0 0 0 0 0 0
0 0 0 0 0 0 0 0 0 0 0 0 0 0 0 0 0 0 0 0 0 0 0 0 0 0 0 0 0 0 0 0 0 0 0 0 0 0 0 0 0 0 0
0 0 0 0 0 0 0 0 0 0 0 0 0 0 0 0 0 0 0 0 0 0 0 0 0 0 0 0 0 0 0 0 0 0 0 0 0 0 0 0 0 0 0
0 0 0 0 0 0 0 0 0 0 0 0 0 0 0 0 0 0 0 0 0 0 0 0 0 0 0 0 0 0 0 0 0 0 0 0 0 0 0 0 0 0 0
Height
5871 5872 5873 5874 5874 5875 5876 5876 5877 5877 5877 5877 5877 5877 5876 5876 5876 5876 5876 5875 5875 5874 5874 5873 5872 5872 5871 5870 5869 5868 5867 5867 5866 5865 5864 5863 5862 5861 5860 5859 5859 5858 5857
5869 5870 5871 5872 5873 5873 5874 5875 5875 5875 5875 5875 5875 5875 5875 5875 5874 5874 5874 5873 5873 5872 5871 5871 5870 5869 5868 5867 5866 5865 5864 5863 5862 5861 5860 5859 5858 5857 5856 5855 5854 5853 5852
5867 5868 5869 5870 5871 5872 5872 5873 5873 5873 5874 5874 5873 5873 5873 5873 5872 5872 5872 5871 5870 5870 5869 5868 5867 5866 5865 5864 5863 5862 5861 5860 5859 5857 5856 5855 5854 5853 5852 5851 5850 5849 5848
5864 5866 5867 5868 5869 5870 5870 5871 5871 5872 5872 5872 5871 5871 5871 5871 5870 5870 5869 5869 5868 5867 5866 5865 5864 5863 5862 5861 5860 5859 5857 5856 5855 5854 5852 5851 5850 5848 5847 5846 5845 5844 5842
5862 5864 5865 5866 5867 5868 5868 5869 5869 5869 5869 5869 5869 5869 5869 5868 5868 5867 5867 5866 5865 5864 5863 5863 5861 5860 5859 5858 5856 5855 5854 5852 5851 5850 5848 5847 5845 5844 5842 5841 5840 5838 5837
5860 5861 5863 5864 5865 5865 5866 5867 5867 5867 5867 5867 5867 5867 5866 5866 5865 5865 5864 5863 5862 5861 5860 5859 5858 5857 5856 5854 5853 5851 5850 5848 5847 5845 5844 5842 5840 5839 5837 5836 5834 5833 5831
5858 5859 5860 5862 5862 5863 5864 5864 5865 5865 5865 5865 5865 5864 5864 5863 5863 5862 5861 5860 5859 5858 5857 5856 5854 5853 5852 5850 5848 5847 5845 5844 5842 5841 5839 5837 5835 5834 5832 5830 5828 5827 5825
5855 5857 5858 5859 5860 5861 5862 5862 5862 5862 5862 5862 5862 5862 5861 5860 5860 5859 5858 5857 5856 5855 5853 5852 5851 5849 5848 5846 5844 5842 5841 5839 5837 5835 5834 5832 5830 5828 5826 5824 5822 5820 5819
5853 5854 5856 5857 5858 5859 5859 5860 5860 5860 5860 5860 5859 5859 5858 5857 5857 5856 5855 5854 5852 5851 5849 5848 5847 5845 5843 5841 5840 5838 5836 5834 5832 5830 5828 5826 5824 5822 5820 5818 5816 5814 5812
5850 5852 5853 5854 5855 5856 5856 5857 5857 5857 5857 5857 5856 5856 5855 5854 5853 5852 5851 5850 5848 5847 5845 5844 5842 5840 5839 5837 5835 5833 5830 5828 5826 5824 5822 5820 5818 5815 5813 5811 5809 5807 5805
5847 5849 5850 5851 5852 5853 5853 5854 5854 5854 5854 5853 5853 5852 5852 5851 5850 5848 5847 5845 5844 5842 5840 5839 5837 5835 5833 5831 5829 5827 5825 5822 5820 5818 5815 5813 5811 5808 5806 5804 5802 5799 5797
5844 5846 5847 5848 5849 5850 5850 5850 5851 5851 5850 5850 5849 5849 5848 5847 5845 5844 5843 5841 5839 5837 5835 5834 5832 5830 5828 5825 5823 5821 5818 5816 5813 5811 5809 5806 5804 5801 5799 5796 5794 5792 5790
5841 5842 5844 5845 5846 5846 5847 5847 5847 5847 5847 5846 5845 5845 5844 5842 5841 5839 5838 5836 5834 5832 5830 5828 5826 5824 5822 5819 5817 5814 5812 5809 5807 5804 5802 5799 5796 5794 5791 5789 5786 5784 5781
5837 5838 5840 5841 5842 5843 5843 5843 5843 5843 5842 5842 5841 5840 5839 5838 5836 5834 5833 5831 5829 5827 5825 5822 5820 5818 5815 5813 5810 5808 5805 5802 5799 5797 5794 5791 5789 5786 5783 5781 5778 5775 5773
5833 5834 5836 5837 5838 5839 5839 5839 5839 5839 5838 5837 5837 5836 5834 5833 5831 5829 5827 5825 5823 5821 5819 5816 5814 5811 5809 5806 5804 5801 5798 5795 5792 5789 5787 5784 5781 5778 5775 5772 5770 5767 5764
5829 5830 5832 5833 5833 5834 5834 5835 5834 5834 5833 5833 5832 5830 5829 5827 5826 5824 5822 5819 5817 5815 5812 5810 5807 5804 5802 5799 5796 5794 5791 5788 5785 5782 5779 5776 5773 5770 5767 5764 5761 5758 5755
5824 5826 5827 5828 5829 5829 5829 5830 5829 5829 5828 5827 5826 5825 5823 5822 5820 5818 5815 5813 5811 5808 5806 5803 5800 5797 5795 5792 5789 5786 5783 5780 5777 5774 5771 5768 5765 5762 5758 5755 5752 5749 5746
5819 5820 5822 5823 5823 5824 5824 5824 5824 5823 5822 5821 5820 5819 5817 5815 5813 5811 5809 5807 5804 5801 5799 5796 5793 5790 5788 5785 5782 5779 5776 5773 5769 5766 5763 5760 5757 5753 5750 5747 5743 5740 5737
5813 5815 5816 5817 5818 5818 5818 5818 5818 5817 5816 5815 5814 5812 5811 5809 5807 5805 5802 5800 5797 5795 5792 5789 5786 5783 5780 5778 5775 5771 5768 5765 5762 5758 5755 5752 5748 5745 5741 5738 5735 5731 5727
5808 5809 5810 5811 5812 5812 5812 5812 5811 5810 5810 5809 5807 5806 5804 5802 5800 5798 5795 5793 5790 5788 5785 5782 5779 5776 5773 5770 5767 5764 5761 5757 5754 5750 5747 5743 5740 5736 5733 5729 5726 5722 5718
5802 5803 5804 5805 5805 5805 5806 5805 5805 5804 5803 5802 5800 5799 5797 5795 5793 5791 5788 5786 5783 5780 5777 5775 5772 5769 5766 5763 5760 5756 5753 5749 5746 5742 5738 5735 5731 5727 5724 5720 5716 5713 5709
5795 5796 5797 5798 5798 5799 5799 5798 5798 5797 5796 5795 5793 5791 5789 5788 5785 5783 5781 5778 5776 5773 5770 5767 5764 5761 5758 5755 5752 5749 5746 5742 5738 5734 5730 5726 5723 5719 5715 5711 5707 5703 5699
5787 5789 5790 5791 5791 5791 5791 5791 5790 5790 5789 5787 5785 5784 5782 5780 5778 5776 5773 5771 5768 5765 5763 5760 5757 5754 5751 5747 5744 5741 5737 5734 5731 5727 5722 5718 5714 5710 5706 5701 5697 5693 5689
5780 5781 5782 5783 5784 5784 5783 5783 5783 5782 5781 5780 5778 5776 5774 5772 5770 5768 5765 5763 5760 5758 5755 5752 5749 5746 5743 5739 5736 5732 5729 5725 5722 5719 5715 5710 5705 5701 5696 5692 5687 5683 5679
5771 5773 5774 5775 5776 5776 5776 5776 5775 5775 5773 5772 5770 5769 5767 5765 5763 5760 5758 5755 5753 5750 5747 5744 5741 5738 5735 5731 5728 5724 5721 5717 5713 5709 5706 5702 5697 5691 5687 5682 5677 5673 5669
5763 5765 5766 5767 5768 5768 5768 5768 5767 5766 5765 5764 5762 5760 5759 5757 5755 5752 5750 5748 5745 5742 5740 5737 5734 5730 5727 5723 5720 5716 5712 5708 5704 5700 5697 5693 5688 5683 5677 5672 5667 5662 5658
Wind_Speed
13 12 11 10 9 9 9 8 8 8 8 8 9 9 9 10 10 11 12 13 14 15 15 16 16 16 17 17 17 18 18 18 19 19 19 20 20 20 21 21 22 22 23
13 12 11 11 10 9 9 9 9 9 8 9 9 10 10 11 12 12 13 14 14 15 16 16 17 17 18 18 19 19 19 20 20 20 21 21 21 22 22 22 23 23 24
14 13 12 11 11 10 10 10 9 9 9 9 10 11 11 12 13 13 14 14 15 16 16 17 17 18 18 19 19 20 20 21 21 22 22 23 23 24 24 24 25 25 26
15 14 13 12 11 11 11 10 10 10 10 11 11 12 12 12 13 14 15 15 16 17 18 18 19 19 20 20 21 21 22 22 22 23 23 24 25 25 26 26 26 27 27
15 14 13 13 12 11 11 10 10 10 11 11 12 12 13 13 14 14 15 16 17 18 19 20 20 20 20 21 22 23 23 24 24 24 25 26 26 27 27 27 28 28 29
16 15 14 13 12 11 11 10 10 11 11 12 12 13 13 14 14 15 16 17 18 19 20 20 20 21 21 22 23 24 24 25 26 26 26 27 28 28 28 29 29 30 30
16 15 14 13 12 12 11 11 11 12 12 13 13 13 14 14 15 16 17 18 18 19 20 20 21 22 23 24 25 25 26 27 27 28 28 29 29 29 30 30 30 31 31
16 15 14 13 13 12 12 12 12 12 12 13 13 13 14 15 16 17 18 18 19 20 21 22 23 24 25 26 26 27 27 28 29 29 30 30 30 31 31 32 32 33 33
16 15 14 13 13 12 12 12 12 13 13 13 14 14 15 16 17 18 19 20 21 22 23 24 25 25 26 27 27 28 29 29 30 30 31 31 32 32 33 33 34 34 35
16 15 15 14 14 13 13 13 13 13 13 14 15 16 17 17 18 19 20 21 22 23 24 25 26 26 27 28 28 29 30 31 32 32 33 33 34 34 35 35 35 36 36
16 16 15 15 15 14 14 14 13 13 14 15 16 17 18 19 20 21 21 23 24 25 26 26 27 28 29 29 30 31 32 32 33 34 34 35 35 36 36 36 37 37 37
17 17 16 16 16 15 14 14 14 15 16 16 17 18 19 20 21 22 23 24 25 26 27 28 29 29 30 31 32 32 33 34 35 35 36 36 37 37 37 38 38 38 38
18 17 17 17 16 16 15 15 16 17 17 18 18 19 20 21 22 23 25 25 27 28 29 30 30 31 32 32 33 34 35 35 36 36 37 37 38 38 39 39 39 39 39
19 18 18 17 17 17 17 17 17 18 18 19 20 21 22 23 24 25 26 27 28 29 30 31 32 33 33 34 35 35 36 37 37 37 38 38 39 39 40 40 40 40 40
20 19 19 18 18 18 18 18 19 19 20 20 21 22 24 25 26 27 28 29 30 31 32 33 34 35 35 36 36 36 37 38 38 38 39 39 40 40 40 41 41 41 42
21 21 20 20 19 19 19 20 21 21 21 22 23 24 26 27 28 29 30 31 32 33 34 35 35 36 37 37 37 37 38 38 39 39 40 40 40 40 41 41 42 42 42
23 22 22 21 21 21 21 22 22 23 24 25 26 27 28 29 30 31 32 33 34 34 35 36 36 37 38 38 38 39 39 39 39 40 40 40 41 41 42 42 42 42 42
24 24 23 23 23 23 23 24 25 26 26 27 28 29 30 31 32 33 34 34 35 36 36 37 37 38 39 39 39 40 40 40 40 40 41 41 42 42 42 42 42 42 43
25 25 25 25 25 25 25 26 27 28 28 29 30 31 32 33 34 35 35 36 36 37 37 38 38 39 39 40 40 40 40 40 41 41 41 41 42 42 41 42 42 42 43
27 26 26 27 27 27 27 28 29 30 31 31 32 33 34 35 35 35 36 37 37 38 38 38 39 40 40 40 40 40 40 41 41 41 42 42 42 42 42 43 43 42 42
28 28 28 28 29 29 30 30 31 32 32 33 34 35 35 36 36 37 37 37 38 38 39 39 39 40 40 40 40 40 41 41 41 41 42 42 43 43 43 43 43 43 43
30 30 30 30 31 31 32 32 33 33 33 34 36 36 37 37 37 37 38 38 38 38 39 39 40 40 40 40 40 40 40 40 41 42 42 43 43 43 44 43 44 44 44
31 31 31 31 32 33 33 34 34 34 35 36 37 37 37 37 37 38 38 39 39 39 39 39 39 39 40 40 41 41 41 41 41 41 42 43 44 44 45 45 45 44 44
33 33 33 33 33 34 34 34 34 35 36 37 37 37 37 37 38 38 39 39 38 38 39 39 39 39 40 40 41 41 42 42 42 42 43 44 44 45 45 45 45 45 45
34 34 34 34 34 34 35 35 35 36 36 37 37 37 37 38 38 38 38 38 38 38 38 39 39 39 40 40 41 42 42 43 43 43 43 44 44 45 46 45 45 46 46
35 35 35 35 35 35 35 36 36 36 37 37 37 37 37 38 37 37 37 38 38 38 38 39 39 39 40 41 42 43 43 43 44 44 44 45 45 45 46 47 47 48 48
Wind_Direction
223 225 224 224 227 232 240 248 255 264 273 281 286 291 295 299 303 305 307 308 309 310 310 310 310 309 308 307 307 305 303 302 300 298 297 296 295 294 293 292 291 290 289
223 224 225 227 230 235 243 252 260 266 272 279 286 291 295 299 302 304 306 308 309 310 309 309 308 306 305 305 304 304 302 301 300 299 298 297 295 294 293 291 290 289 288
222 223 226 228 233 240 249 256 261 266 274 281 287 292 296 298 300 303 306 307 307 307 307 307 306 305 304 303 302 302 301 300 300 298 297 296 294 293 291 290 289 288 287
222 224 227 231 237 244 251 256 262 269 276 283 289 293 297 298 301 303 305 306 306 306 306 306 305 304 303 302 302 301 300 299 298 297 296 295 294 293 291 290 288 287 286
223 226 230 234 240 245 250 255 262 270 278 284 289 294 297 299 302 303 305 306 307 306 306 306 305 305 304 303 302 301 300 299 298 297 296 295 294 292 291 290 288 287 286
225 229 233 236 240 244 249 255 263 271 278 284 290 294 296 299 301 303 305 306 307 307 306 306 305 305 304 304 302 301 300 298 297 296 296 295 294 292 291 289 288 287 286
226 230 234 236 239 243 250 259 267 273 279 285 290 293 296 299 302 304 305 306 307 307 306 305 305 304 304 303 302 301 300 298 297 296 296 295 294 293 292 290 289 288 287
227 231 234 235 239 245 253 261 269 276 281 286 290 294 297 300 302 304 304 305 306 306 305 304 303 303 303 303 302 301 300 299 297 296 296 295 294 293 292 291 289 288 287
226 230 234 237 242 248 255 261 269 277 283 288 291 294 297 300 301 302 304 305 305 305 305 303 302 302 302 302 302 301 300 299 298 297 296 295 294 293 292 291 290 289 288
225 229 233 239 244 249 255 263 271 276 283 288 292 295 298 299 301 302 303 304 305 305 305 304 303 302 302 301 301 301 300 299 299 298 297 296 295 294 292 291 290 290 289
227 230 235 241 246 251 258 264 269 276 283 289 293 297 298 300 302 302 303 304 304 305 305 305 304 303 302 301 301 300 300 299 299 298 298 297 296 294 293 292 291 290 289
230 233 238 244 249 254 258 263 270 278 285 289 292 296 298 300 302 303 303 303 304 304 304 304 303 303 302 302 301 301 300 299 299 298 298 297 296 295 294 293 292 291 290
232 236 241 246 251 255 260 265 272 278 284 288 291 294 297 300 301 302 303 303 303 304 303 303 302 302 302 302 302 301 300 299 299 299 298 298 297 295 295 294 293 292 291
235 239 244 249 254 258 263 268 274 280 284 287 290 293 296 298 300 301 302 302 302 302 302 302 302 302 302 302 302 301 301 300 299 299 299 299 298 296 295 295 294 292 292
238 242 246 252 255 259 265 270 276 281 284 287 290 292 295 297 298 299 300 301 301 301 301 302 302 301 301 302 302 301 300 300 299 299 300 299 299 298 297 296 295 294 293
241 244 249 254 258 262 266 271 276 281 284 287 290 292 295 296 298 299 299 300 300 300 300 300 300 301 301 301 301 302 301 300 300 300 300 300 299 299 298 297 296 296 295
243 247 250 255 259 264 268 272 277 280 284 287 289 292 294 295 297 298 298 299 300 300 300 299 300 301 301 301 302 302 302 301 300 300 300 300 300 300 299 299 298 297 297
245 249 252 256 261 265 270 274 278 281 283 286 289 292 293 295 296 296 297 298 299 299 299 299 299 299 300 301 301 302 302 301 301 301 300 300 301 301 300 300 300 299 298
247 250 254 258 262 266 270 274 278 281 283 286 288 290 292 293 294 294 296 297 298 298 298 298 298 299 299 300 301 302 302 302 301 302 301 301 301 301 301 301 301 300 300
248 251 255 260 263 267 271 274 277 280 283 285 287 289 290 292 292 293 295 296 297 297 297 297 298 298 299 300 301 302 302 302 302 303 302 302 302 302 303 303 303 302 302
250 253 257 261 264 268 271 274 277 279 281 284 286 288 289 290 291 293 294 295 296 296 297 297 298 299 299 300 301 302 302 302 303 303 303 303 304 304 304 304 304 303 303
252 256 259 262 264 268 271 274 276 278 280 283 286 287 288 289 291 292 293 295 296 296 297 297 298 298 299 300 301 302 303 303 304 304 304 305 305 305 305 305 305 304 303
255 258 260 262 265 268 271 273 275 277 280 282 284 285 287 288 290 291 293 294 295 296 296 297 298 298 299 300 300 302 303 303 304 305 305 305 306 306 306 305 305 305 304
256 258 260 263 265 267 270 272 274 277 279 281 282 284 286 287 289 291 292 294 295 296 296 297 297 298 299 300 301 302 303 304 304 305 305 305 306 306 306 306 306 305 304
256 258 261 263 265 267 269 271 274 276 278 280 281 283 285 287 289 290 292 293 294 295 296 297 297 298 299 300 301 302 303 304 304 305 306 306 306 307 307 307 306 305 305
257 259 262 264 266 268 270 272 274 276 277 279 280 282 284 287 289 290 292 293 294 295 296 297 297 298 299 300 301 302 303 304 305 305 306 306 306 307 307 307 307 306 305